Location: Caltech
(34.1382°N, 118.1253°W)
Time: 08:03:08
(UTC-08:00)

HO-68 - Visible Passes

Search period start: 06 March 2015 00:00
Search period end: 16 March 2015 01:00
Orbit: 1193 x 1204 km, 100.2° (Epoch: 05 March)

Date Brightness Start Highest point End Pass type
(mag) Time Alt. Az. Time Alt. Az. Time Alt. Az.
06 Mar ? 18:20:31 10° E 18:24:35 17° ENE 18:29:00 10° NNE visible
06 Mar ? 20:07:58 33° S 20:11:35 81° WSW 20:18:47 10° NNW visible
06 Mar ? 21:59:17 10° W 22:00:30 10° W 22:01:00 10° W visible
07 Mar ? 19:50:41 29° SSE 19:54:42 78° ENE 20:01:53 10° NNW visible
07 Mar ? 21:40:08 12° WSW 21:43:14 15° W 21:46:58 10° WNW visible
08 Mar ? 20:33:25 24° SE 20:37:51 59° ENE 20:44:53 10° N visible
08 Mar ? 22:22:52 17° SW 22:26:03 22° W 22:31:11 10° NW visible
09 Mar ? 20:16:09 18° SE 20:21:03 44° ENE 20:27:47 10° N visible
09 Mar ? 22:05:35 21° SW 22:08:56 30° W 22:14:57 10° NW visible
10 Mar ? 19:58:53 13° ESE 20:04:16 34° ENE 20:10:35 10° N visible
10 Mar ? 21:48:19 25° SSW 21:51:53 40° W 21:58:30 10° NNW visible
11 Mar ? 19:42:03 10° ESE 19:47:31 25° ENE 19:53:14 10° N visible
11 Mar ? 21:31:04 28° SSW 21:34:53 54° W 21:41:52 10° NNW visible
12 Mar ? 19:26:16 10° ESE 19:30:49 19° ENE 19:35:41 10° NNE visible
12 Mar ? 21:13:48 28° S 21:17:56 73° WSW 21:25:06 10° NNW visible
13 Mar ? 20:56:33 26° SSE 21:01:01 86° ENE 21:08:14 10° NNW visible
13 Mar ? 22:46:15 10° WSW 22:49:43 13° W 22:52:36 10° WNW visible
14 Mar ? 20:39:17 22° SSE 20:44:09 66° ENE 20:51:16 10° N visible
14 Mar ? 22:28:44 13° SW 22:32:30 19° W 22:37:08 10° NW visible
15 Mar ? 20:22:02 17° SE 20:27:20 50° ENE 20:34:13 10° N visible
15 Mar ? 22:11:29 17° SW 22:15:21 26° W 22:21:04 10° NW visible
